Location: New Greens
(51.7702°N, 0.3379°W)
Time: 15:09:51
(UTC+00:00)

Envisat - Pass Details

Date: 01 February 2019
Orbit: 764 x 766 km, 98.1° (Epoch: 17 October)

Event Time Altitude Azimuth Distance (km) Brightness Sun altitude
Rises 17:19:19 0° 128° (SE) 3,227 5.9 -5.0°
Reaches altitude 10° 17:21:54 10° 117° (ESE) 2,304 5.1 -5.4°
Maximum altitude 17:26:08 27° 60° (ENE) 1,437 3.9 -6.0°
Drops below altitude 10° 17:30:22 10° 4° (N) 2,316 5.3 -6.6°
Sets 17:32:58 0° 353° (N) 3,247 6.1 -7.0°
